Wetterdaten: Woche 24.12.12 - 30.12.12 (KW52)
Datum Zeit Temperatur Luftfeuchte Luftdruck Niederschlag Windrichtung Sonnenschein Solar Wind
24.12.2012 00:00 8,1 C 86 % 1015,2 hPa 0,0 l/m SW 0,00 h 0 W/m 16,4 km/h (3 Bft)
24.12.2012 01:00 7,6 C 86 % 1014,6 hPa 0,0 l/m SW 0,00 h 0 W/m 12,2 km/h (2 Bft)
24.12.2012 02:00 7,7 C 83 % 1014,2 hPa 0,0 l/m SW 0,00 h 0 W/m 12,6 km/h (3 Bft)
24.12.2012 03:00 7,3 C 82 % 1013,8 hPa 0,0 l/m SW 0,00 h 0 W/m 11,7 km/h (2 Bft)
24.12.2012 04:00 7,1 C 82 % 1013,1 hPa 0,0 l/m W-SW 0,00 h 0 W/m 16,2 km/h (3 Bft)
24.12.2012 05:00 7,2 C 81 % 1012,7 hPa 0,0 l/m SW 0,00 h 0 W/m 16,6 km/h (3 Bft)
24.12.2012 06:00 7,0 C 80 % 1012,4 hPa 0,0 l/m SW 0,00 h 0 W/m 15,2 km/h (3 Bft)
24.12.2012 07:00 7,3 C 78 % 1012,2 hPa 0,0 l/m SW 0,00 h 0 W/m 11,9 km/h (2 Bft)
24.12.2012 08:00 5,9 C 80 % 1012,5 hPa 0,0 l/m S-SO 0,00 h 16 W/m 4,5 km/h (1 Bft)
24.12.2012 09:00 4,8 C 86 % 1012,5 hPa 0,0 l/m S-SO 0,00 h 45 W/m 3,9 km/h (1 Bft)
24.12.2012 10:00 6,0 C 87 % 1012,8 hPa 0,0 l/m SO 0,92 h 176 W/m 7,3 km/h (2 Bft)
24.12.2012 11:00 8,6 C 80 % 1012,3 hPa 0,0 l/m SO 1,00 h 273 W/m 8,0 km/h (2 Bft)
24.12.2012 12:00 10,8 C 74 % 1011,3 hPa 0,0 l/m S-SW 1,00 h 300 W/m 11,2 km/h (2 Bft)
24.12.2012 13:00 11,2 C 73 % 1010,3 hPa 0,0 l/m SW 0,67 h 191 W/m 14,0 km/h (3 Bft)
24.12.2012 14:00 10,2 C 75 % 1009,9 hPa 0,0 l/m SW 0,17 h 89 W/m 11,8 km/h (2 Bft)
24.12.2012 15:00 10,2 C 70 % 1009,9 hPa 0,0 l/m S-SW 0,25 h 49 W/m 14,1 km/h (3 Bft)
24.12.2012 16:00 9,8 C 70 % 1009,8 hPa 0,0 l/m SW 0,08 h 14 W/m 16,2 km/h (3 Bft)
24.12.2012 17:00 9,7 C 67 % 1009,7 hPa 0,0 l/m SW 0,00 h 0 W/m 14,9 km/h (3 Bft)
24.12.2012 18:00 9,2 C 69 % 1009,4 hPa 0,0 l/m SW 0,00 h 0 W/m 14,0 km/h (3 Bft)
24.12.2012 19:00 9,2 C 68 % 1009,1 hPa 0,0 l/m SW 0,00 h 0 W/m 9,0 km/h (2 Bft)
24.12.2012 20:00 7,6 C 74 % 1009,1 hPa 0,0 l/m SW 0,00 h 0 W/m 7,2 km/h (2 Bft)
24.12.2012 21:00 5,5 C 80 % 1009,1 hPa 0,0 l/m N 0,00 h 0 W/m 2,5 km/h (1 Bft)
24.12.2012 22:00 4,8 C 85 % 1009,0 hPa 0,0 l/m SW 0,00 h 0 W/m 1,7 km/h (1 Bft)
24.12.2012 23:00 4,2 C 87 % 1008,6 hPa 0,0 l/m N 0,00 h 0 W/m 1,1 km/h (0 Bft)
25.12.2012 00:00 3,5 C 87 % 1008,4 hPa 0,0 l/m N 0,00 h 0 W/m 0,7 km/h (0 Bft)
25.12.2012 01:00 2,8 C 90 % 1007,9 hPa 0,0 l/m N 0,00 h 0 W/m 1,6 km/h (1 Bft)
25.12.2012 02:00 2,5 C 91 % 1007,2 hPa 0,0 l/m N 0,00 h 0 W/m 0,0 km/h (0 Bft)
25.12.2012 03:00 2,2 C 92 % 1006,7 hPa 0,0 l/m N 0,00 h 0 W/m 0,3 km/h (0 Bft)
25.12.2012 04:00 1,9 C 93 % 1006,5 hPa 0,0 l/m N 0,00 h 0 W/m 1,5 km/h (1 Bft)
25.12.2012 05:00 1,8 C 94 % 1006,8 hPa 0,0 l/m SW 0,00 h 0 W/m 2,4 km/h (1 Bft)
25.12.2012 06:00 1,6 C 94 % 1007,3 hPa 0,0 l/m S 0,00 h 0 W/m 6,4 km/h (2 Bft)
25.12.2012 07:00 3,9 C 95 % 1007,9 hPa 0,0 l/m SW 0,00 h 0 W/m 14,2 km/h (3 Bft)
25.12.2012 08:00 5,4 C 88 % 1008,2 hPa 0,0 l/m SW 0,00 h 14 W/m 14,0 km/h (3 Bft)
25.12.2012 09:00 7,2 C 80 % 1008,4 hPa 0,0 l/m W-SW 0,00 h 54 W/m 20,4 km/h (4 Bft)
25.12.2012 10:00 9,4 C 72 % 1008,4 hPa 0,0 l/m SW 0,58 h 153 W/m 17,7 km/h (3 Bft)
25.12.2012 11:00 9,2 C 73 % 1007,8 hPa 0,0 l/m SW 1,00 h 219 W/m 14,2 km/h (3 Bft)
25.12.2012 12:00 11,3 C 70 % 1006,9 hPa 0,0 l/m SW 1,00 h 299 W/m 11,2 km/h (2 Bft)
25.12.2012 13:00 13,1 C 59 % 1006,2 hPa 0,0 l/m W-SW 0,83 h 231 W/m 18,5 km/h (3 Bft)
25.12.2012 14:00 14,0 C 52 % 1006,3 hPa 0,0 l/m SW 0,75 h 165 W/m 20,5 km/h (4 Bft)
25.12.2012 15:00 13,5 C 55 % 1006,6 hPa 0,0 l/m SW 0,00 h 24 W/m 15,3 km/h (3 Bft)
25.12.2012 16:00 11,9 C 63 % 1007,1 hPa 0,0 l/m SW 0,00 h 8 W/m 11,4 km/h (2 Bft)
25.12.2012 17:00 11,0 C 69 % 1007,3 hPa 0,0 l/m SW 0,00 h 0 W/m 7,9 km/h (2 Bft)
25.12.2012 18:00 10,1 C 72 % 1007,9 hPa 0,0 l/m SW 0,00 h 0 W/m 7,6 km/h (2 Bft)
25.12.2012 19:00 10,8 C 72 % 1009,2 hPa 0,2 l/m W-SW 0,00 h 0 W/m 19,3 km/h (3 Bft)
25.12.2012 20:00 8,6 C 84 % 1010,5 hPa 1,6 l/m W-NW 0,00 h 0 W/m 21,6 km/h (4 Bft)
25.12.2012 21:00 6,4 C 89 % 1011,3 hPa 1,2 l/m W-NW 0,00 h 0 W/m 25,6 km/h (4 Bft)
25.12.2012 22:00 5,8 C 91 % 1011,3 hPa 2,4 l/m W-NW 0,00 h 0 W/m 29,9 km/h (5 Bft)
25.12.2012 23:00 5,3 C 93 % 1011,6 hPa 1,2 l/m SW 0,00 h 0 W/m 19,3 km/h (3 Bft)
26.12.2012 00:00 5,2 C 94 % 1011,9 hPa 0,4 l/m SW 0,00 h 0 W/m 21,3 km/h (4 Bft)
26.12.2012 01:00 5,0 C 95 % 1011,8 hPa 0,2 l/m SW 0,00 h 0 W/m 18,2 km/h (3 Bft)
26.12.2012 02:00 5,0 C 96 % 1011,7 hPa 0,0 l/m SW 0,00 h 0 W/m 16,2 km/h (3 Bft)
26.12.2012 03:00 5,1 C 96 % 1011,7 hPa 0,0 l/m SW 0,00 h 0 W/m 18,4 km/h (3 Bft)
26.12.2012 04:00 5,1 C 96 % 1011,7 hPa 0,0 l/m SW 0,00 h 0 W/m 13,7 km/h (3 Bft)
26.12.2012 05:00 5,0 C 96 % 1011,8 hPa 0,0 l/m SW 0,00 h 0 W/m 15,0 km/h (3 Bft)
26.12.2012 06:00 4,9 C 96 % 1012,2 hPa 0,0 l/m SW 0,00 h 0 W/m 14,8 km/h (3 Bft)
26.12.2012 07:00 4,9 C 97 % 1012,5 hPa 0,0 l/m SW 0,00 h 0 W/m 13,4 km/h (3 Bft)
26.12.2012 08:00 5,3 C 95 % 1012,9 hPa 0,0 l/m W-SW 0,00 h 14 W/m 23,2 km/h (4 Bft)
26.12.2012 09:00 5,7 C 91 % 1013,3 hPa 0,0 l/m W-SW 0,00 h 23 W/m 25,9 km/h (4 Bft)
26.12.2012 10:00 6,3 C 88 % 1014,0 hPa 0,0 l/m W 0,00 h 54 W/m 29,2 km/h (5 Bft)
26.12.2012 11:00 6,4 C 88 % 1014,6 hPa 0,0 l/m W-SW 0,00 h 79 W/m 22,9 km/h (4 Bft)
26.12.2012 12:00 6,8 C 84 % 1015,2 hPa 0,0 l/m W-SW 0,08 h 108 W/m 23,7 km/h (4 Bft)
26.12.2012 13:00 7,7 C 72 % 1015,1 hPa 0,0 l/m W 0,33 h 163 W/m 31,5 km/h (5 Bft)
26.12.2012 14:00 7,4 C 70 % 1015,4 hPa 0,0 l/m SW 0,33 h 130 W/m 30,2 km/h (5 Bft)
26.12.2012 15:00 6,9 C 72 % 1016,0 hPa 0,0 l/m W-SW 0,00 h 31 W/m 33,9 km/h (5 Bft)
26.12.2012 16:00 6,2 C 74 % 1016,0 hPa 0,0 l/m W-SW 0,00 h 9 W/m 27,1 km/h (4 Bft)
26.12.2012 17:00 5,7 C 77 % 1016,5 hPa 0,0 l/m W-SW 0,00 h 0 W/m 23,7 km/h (4 Bft)
26.12.2012 18:00 5,4 C 79 % 1017,1 hPa 0,0 l/m W-SW 0,00 h 0 W/m 18,0 km/h (3 Bft)
26.12.2012 19:00 5,8 C 77 % 1017,4 hPa 0,0 l/m W-SW 0,00 h 0 W/m 24,9 km/h (4 Bft)
26.12.2012 20:00 5,3 C 79 % 1017,5 hPa 0,0 l/m W 0,00 h 0 W/m 21,4 km/h (4 Bft)
26.12.2012 21:00 5,3 C 78 % 1017,3 hPa 0,0 l/m W-SW 0,00 h 0 W/m 25,7 km/h (4 Bft)
26.12.2012 22:00 5,5 C 77 % 1016,9 hPa 0,0 l/m W-SW 0,00 h 0 W/m 27,4 km/h (4 Bft)
26.12.2012 23:00 5,4 C 77 % 1016,7 hPa 0,0 l/m W-SW 0,00 h 0 W/m 25,1 km/h (4 Bft)
27.12.2012 00:00 5,1 C 79 % 1016,2 hPa 0,0 l/m W-SW 0,00 h 0 W/m 25,5 km/h (4 Bft)
27.12.2012 01:00 4,6 C 81 % 1015,5 hPa 0,0 l/m W-SW 0,00 h 0 W/m 24,1 km/h (4 Bft)
27.12.2012 02:00 4,8 C 80 % 1014,9 hPa 0,0 l/m W-SW 0,00 h 0 W/m 26,2 km/h (4 Bft)
27.12.2012 03:00 5,1 C 79 % 1014,5 hPa 0,0 l/m SW 0,00 h 0 W/m 24,9 km/h (4 Bft)
27.12.2012 04:00 4,9 C 80 % 1013,9 hPa 0,0 l/m SW 0,00 h 0 W/m 25,3 km/h (4 Bft)
27.12.2012 05:00 6,2 C 75 % 1013,6 hPa 0,0 l/m W-SW 0,00 h 0 W/m 30,2 km/h (5 Bft)
27.12.2012 06:00 6,8 C 73 % 1013,2 hPa 0,0 l/m W-SW 0,00 h 0 W/m 29,9 km/h (5 Bft)
27.12.2012 07:00 6,8 C 76 % 1013,3 hPa 0,0 l/m W-SW 0,00 h 0 W/m 33,3 km/h (5 Bft)
27.12.2012 08:00 6,3 C 82 % 1012,7 hPa 0,0 l/m SW 0,00 h 11 W/m 32,3 km/h (5 Bft)
27.12.2012 09:00 5,9 C 84 % 1012,3 hPa 0,0 l/m W-SW 0,00 h 24 W/m 28,3 km/h (4 Bft)
27.12.2012 10:00 5,6 C 90 % 1012,1 hPa 0,8 l/m W-SW 0,00 h 21 W/m 25,6 km/h (4 Bft)
27.12.2012 11:00 5,2 C 93 % 1011,1 hPa 1,0 l/m SW 0,00 h 38 W/m 16,2 km/h (3 Bft)
27.12.2012 12:00 5,5 C 95 % 1009,5 hPa 0,0 l/m SW 0,00 h 70 W/m 18,7 km/h (3 Bft)
27.12.2012 13:00 5,6 C 94 % 1008,4 hPa 1,6 l/m W-SW 0,00 h 25 W/m 28,8 km/h (5 Bft)
27.12.2012 14:00 5,5 C 95 % 1008,1 hPa 1,8 l/m W-SW 0,00 h 25 W/m 26,4 km/h (4 Bft)
27.12.2012 15:00 6,1 C 95 % 1007,8 hPa 0,2 l/m SW 0,00 h 21 W/m 31,7 km/h (5 Bft)
27.12.2012 16:00 6,6 C 93 % 1007,7 hPa 0,0 l/m SW 0,00 h 12 W/m 31,9 km/h (5 Bft)
27.12.2012 17:00 6,7 C 89 % 1007,3 hPa 0,0 l/m SW 0,00 h 0 W/m 35,0 km/h (5 Bft)
27.12.2012 18:00 6,2 C 91 % 1007,6 hPa 2,0 l/m W 0,00 h 0 W/m 41,2 km/h (6 Bft)
27.12.2012 19:00 4,7 C 91 % 1010,1 hPa 0,0 l/m W 0,00 h 0 W/m 25,6 km/h (4 Bft)
27.12.2012 20:00 4,6 C 92 % 1011,9 hPa 0,4 l/m W-SW 0,00 h 0 W/m 29,1 km/h (5 Bft)
27.12.2012 21:00 4,7 C 92 % 1012,5 hPa 0,6 l/m W-SW 0,00 h 0 W/m 31,4 km/h (5 Bft)
27.12.2012 22:00 4,9 C 91 % 1012,9 hPa 0,0 l/m W-SW 0,00 h 0 W/m 30,7 km/h (5 Bft)
27.12.2012 23:00 4,8 C 90 % 1013,7 hPa 0,0 l/m W 0,00 h 0 W/m 29,1 km/h (5 Bft)
28.12.2012 00:00 4,3 C 92 % 1014,2 hPa 0,2 l/m W-SW 0,00 h 0 W/m 22,8 km/h (4 Bft)
Min-Datum _ 25.12.12 25.12.12 25.12.12 - - - - 24.12.12
_ Min-Zeit 06:30 14:55 13:20 - - - - 08:25
Minimum _ 1,3 C 49 % 1006,0 hPa - - - - 0,0 km/h (0 Bft)
Max-Datum _ 25.12.12 25.12.12 26.12.12 25.12.12 - 24.12.12 26.12.12 27.12.12
_ Max-Zeit 14:40 07:05 20:00 22:05 - 10:00 13:00 17:15
Maximum _ 14,4 C 97 % 1017,6 hPa 2,4 l/m - 0,08 h 422 W/m 57,9 km/h
SW (7 Bft)
Durchschnitt _ 6,5 C 83 % 1011,4 hPa #15,8 l/m SW #9:00 h 88 W/m 18,6 km/h (3 Bft)